[[{"header":{"parameterUnit":"m.s-1","parameterCategory":1,"la1":30.2991,"la2":30.254,"lo1":-89.0895,"lo2":-89.0444,"dy":0.0017,"dx":0.0017,"nx":28,"ny":28,"refTime":"2024-07-12T09:00:00:Z","depth":0,"parameterNumber":2,"parameterNumberName":"U-component_of_WINDS"},"data":[0,0,0,0,0,0,0,0,0,0,0,0,0,0,0,0,0,0,0,0,0,0,0,0,0,0,0,0,0,0,0,0,0,0,0,0,0,0,0,0,0,0,0,0,0,0,0,0,0,0,0,0,0,0,0,0,0,0,1.77,1.77,0,1.7787,1.7788,1.7789,1.7743,1.7741,1.7739,1.7736,1.7828,1.7832,1.7837,0,0,0,0,0,0,0,0,0,0,0,0,0,1.7495,1.7499,1.7699,1.7701,1.7702,1.7787,1.7788,1.7789,1.7744,1.7741,1.7738,1.7735,1.7826,1.7831,1.7837,0,0,0,0,0,0,0,0,0,0,0,0,0,1.7583,1.75,1.7699,1.7689,1.7689,1.7786,1.7788,1.7789,1.7744,1.7741,1.7737,1.7734,1.7824,1.7831,1.7838,1.795,0,0,1.7859,1.7862,0,0,0,0,0,0,0,0,1.7578,1.7591,1.769,1.769,1.769,1.775,1.7749,1.7843,1.7745,1.7723,1.7736,1.7732,1.7805,1.7813,1.7837,1.7955,1.7959,1.7859,1.7864,1.7867,1.7869,0,0,0,0,0,0,0,1.7572,1.7587,1.7734,1.7691,1.7692,1.7681,1.7689,1.7767,1.7783,1.7725,1.7722,1.7733,1.7804,1.7831,1.7839,1.796,1.7859,1.7865,1.787,1.7872,1.8173,1.8177,0,0,0,0,0,0,1.7566,1.7582,1.7731,1.7737,1.7624,1.7687,1.7697,1.7735,1.7782,1.7786,1.7736,1.773,1.7821,1.7831,1.7842,1.7976,1.7867,1.7873,1.7877,1.8169,1.8174,1.8178,0,0,0,0,0,0,1.7562,1.758,1.7728,1.7658,1.7676,1.7694,1.7737,1.7738,1.7764,1.779,1.7793,1.7759,1.7818,1.7832,1.7923,1.7979,1.7876,1.7882,1.8165,1.8171,1.8176,1.8246,0,0,0,0,0,0,1.7556,1.7579,1.7622,1.766,1.768,1.7807,1.7741,1.7742,1.7776,1.777,1.7813,1.7817,1.7817,1.7913,1.793,1.7986,1.7888,1.816,1.8167,1.8174,1.8238,1.8253,1.8266,0,0,0,0,0,1.7549,1.7638,1.7624,1.7642,1.7734,1.7811,1.7822,1.782,1.7781,1.7824,1.784,1.7815,1.797,1.7923,1.7942,1.8001,1.8156,1.8165,1.8174,1.8232,1.825,1.8265,0,0,0,0,0,0,1.7607,1.7643,1.7628,1.7732,1.7768,1.7803,1.7857,1.7839,1.7888,1.7881,1.7876,1.7886,1.798,1.8,1.7947,1.8112,1.8057,1.807,1.8095,1.8113,1.8126,1.8119,1.7894,0,0,0,0,0,1.7632,1.7691,1.7719,1.7808,1.7827,1.7839,1.7873,1.7867,1.7906,1.7921,1.7944,1.7982,1.8039,1.8077,1.8131,1.8241,1.825,1.8291,1.8305,1.8315,1.8326,1.8385,1.8404,1.8207,1.8207,1.8206,0,0,1.7684,1.7711,1.7748,1.782,1.7848,1.7909,1.7853,1.792,1.7965,1.7931,1.8018,1.8037,1.8079,1.818,1.8225,1.8199,1.8383,1.8327,1.8335,1.834,1.8396,1.8415,1.8431,1.8212,1.8211,1.821,0,0,1.7809,1.7836,1.7912,1.7941,1.7984,1.7991,1.8009,1.8047,1.8057,1.8144,1.812,1.8174,1.8273,1.8303,1.8332,1.8469,1.8448,1.8487,1.8557,1.8615,1.863,1.8644,1.8692,1.8709,1.8498,1.8498,1.8498,0,1.7868,1.7959,1.7954,1.8023,1.8055,1.8027,1.8104,1.8133,1.8191,1.8214,1.8183,1.8306,1.8333,1.844,1.8473,1.8498,1.8518,1.8482,1.8628,1.8642,1.8655,1.87,1.8719,1.8502,1.8502,1.8501,1.8501,0,1.8029,1.8092,1.8149,1.8205,1.8244,1.8317,1.8323,1.8363,1.8355,1.8365,1.8454,1.8485,1.8544,1.857,1.8563,1.8676,1.8658,1.8628,1.8573,1.8678,1.8721,1.8738,1.8509,1.8507,1.8506,1.8505,0,0,1.8193,1.8245,1.8266,1.8291,1.8335,1.8384,1.8456,1.8513,1.8547,1.8588,1.8648,1.8732,1.8704,1.8737,1.8733,1.8784,1.8889,1.8747,1.8748,1.8772,1.9014,1.9036,1.9056,1.8875,1.8878,1.8881,1.9011,0,1.8321,1.8445,1.8443,1.8558,1.8616,1.859,1.8652,1.8686,1.8698,1.8749,1.8763,1.8822,1.8781,1.8801,1.8849,1.8865,1.8937,1.8856,1.893,1.8933,1.892,1.9079,1.9102,1.9223,1.9027,1.903,1.9032,0,1.8487,1.8532,1.8653,1.8688,1.8713,1.8769,1.882,1.887,1.8908,1.8913,1.8949,1.8937,1.901,1.8953,1.9053,1.8998,1.9029,1.9041,1.9046,1.9052,1.8988,1.9089,1.9261,1.9279,1.9059,1.9057,1.9055,0,1.8593,1.8685,1.8769,1.8791,1.8834,1.8874,1.8894,1.8929,1.8963,1.9009,1.9031,1.9085,1.9114,1.9157,1.916,1.9118,1.926,1.9204,1.9266,1.9266,1.9297,1.9295,1.9476,1.9318,1.9318,1.9317,1.9317,0,1.8736,1.8811,1.8817,1.8869,1.8952,1.8948,1.9031,1.9047,1.9078,1.9132,1.9114,1.9165,1.9166,1.9219,1.9222,1.9304,1.9318,1.9324,1.9324,1.9325,1.9325,1.9345,1.9336,1.9322,1.9321,1.932,1.9319,0,1.8868,1.8876,1.8965,1.8999,1.9009,1.9069,1.9097,1.9146,1.9156,1.9225,1.9241,1.9257,1.9318,1.9325,1.9397,1.9399,1.9498,1.9489,1.9484,1.9483,1.9544,1.9538,1.9744,1.9771,1.9596,1.9598,1.9599,0,1.8958,1.9015,1.9054,1.9089,1.9111,1.9167,1.9202,1.92,1.9237,1.9285,1.9328,1.9387,1.9434,1.9533,1.9552,1.9606,1.9598,1.9667,1.9606,1.9606,1.9598,1.9595,1.96,1.9678,1.968,1.9682,1.9683,0,1.9117,1.9118,1.9168,1.9219,1.9261,1.9302,1.934,1.937,1.9373,1.9416,1.9477,1.9514,1.9586,1.9645,1.9699,1.972,1.9702,1.9702,1.9719,1.9721,1.9715,1.9718,1.9515,1.9697,1.9696,1.9695,1.9694,1.9693,1.9231,1.928,1.9314,1.9371,1.9399,1.9435,1.9482,1.9498,1.9549,1.9607,1.9603,1.9672,1.9708,1.9778,1.9803,1.9856,1.9834,1.9859,1.9865,1.9871,1.9877,1.9707,1.9866,1.9866,1.9866,1.9865,1.9865,0,1.9388,1.9409,1.946,1.9514,1.9558,1.9537,1.9578,1.9616,1.9676,1.9711,1.9757,1.9828,1.9885,1.9907,1.9963,2.0001,1.9995,2.0016,2.0013,2.0018,1.9894,1.9873,2.002,2.002,2.002,2.002,2.002,2.002,1.9475,1.9556,1.956,1.9655,1.9676,1.9741,1.9766,1.9799,1.9827,1.9907,1.9953,1.9967,1.9997,2.0055,2.0106,2.0111,2.0132,2.0157,2.0158,2.0042,2.0027,2.0012,1.9992,2.0162,2.0162,2.0277,2.0278,2.0279]},{"header":{"parameterUnit":"m.s-1","parameterCategory":1,"la1":30.2991,"la2":30.254,"lo1":-89.0895,"lo2":-89.0444,"dy":0.0017,"dx":0.0017,"nx":28,"ny":28,"refTime":"2024-07-12T09:00:00:Z","depth":0,"parameterNumber":3,"parameterNumberName":"V-component_of_WINDS"},"data":[0,0,0,0,0,0,0,0,0,0,0,0,0,0,0,0,0,0,0,0,0,0,0,0,0,0,0,0,0,0,0,0,0,0,0,0,0,0,0,0,0,0,0,0,0,0,0,0,0,0,0,0,0,0,0,0,0,0,3.3284,3.3284,0,3.3291,3.3292,3.3292,3.3208,3.3206,3.3204,3.3202,3.3208,3.321,3.3212,0,0,0,0,0,0,0,0,0,0,0,0,0,3.3194,3.3196,3.3284,3.3284,3.3284,3.3291,3.3292,3.3292,3.3209,3.3206,3.3203,3.32,3.3207,3.321,3.3213,0,0,0,0,0,0,0,0,0,0,0,0,0,3.3221,3.3197,3.3284,3.3243,3.324,3.3291,3.3292,3.3292,3.3209,3.3206,3.3202,3.3199,3.3206,3.3209,3.3213,3.3303,0,0,3.3223,3.3225,0,0,0,0,0,0,0,0,3.3219,3.3224,3.3249,3.3246,3.3242,3.3245,3.3262,3.3295,3.321,3.3221,3.3201,3.3197,3.3223,3.3225,3.3234,3.3303,3.3303,3.3224,3.3226,3.3227,3.3228,0,0,0,0,0,0,0,3.3217,3.3223,3.3287,3.325,3.3246,3.3224,3.3224,3.3268,3.3241,3.322,3.3214,3.3216,3.322,3.3231,3.3233,3.3304,3.3224,3.3227,3.3229,3.323,3.3445,3.3449,0,0,0,0,0,0,3.3221,3.3222,3.3286,3.3287,3.3222,3.3228,3.3228,3.3248,3.324,3.3236,3.3219,3.3212,3.3226,3.3229,3.3233,3.3336,3.3227,3.3231,3.3233,3.3442,3.3446,3.345,0,0,0,0,0,0,3.322,3.3228,3.3286,3.3253,3.3259,3.3234,3.3256,3.325,3.326,3.324,3.3234,3.3234,3.3224,3.3228,3.3286,3.3336,3.3232,3.3235,3.3437,3.3443,3.3448,3.3545,0,0,0,0,0,0,3.3218,3.3228,3.3262,3.3254,3.3261,3.334,3.3259,3.3252,3.3266,3.3257,3.3253,3.3249,3.3221,3.3281,3.3289,3.3338,3.3238,3.3433,3.344,3.3446,3.3537,3.3553,3.3567,0,0,0,0,0,3.3215,3.3289,3.3265,3.3273,3.3304,3.3343,3.3346,3.3314,3.3271,3.3305,3.3291,3.3249,3.3329,3.3288,3.3296,3.3347,3.3429,3.3438,3.3446,3.3531,3.355,3.3566,0,0,0,0,0,0,3.3304,3.3288,3.326,3.3335,3.3341,3.3329,3.337,3.3336,3.3354,3.3345,3.3303,3.3303,3.3367,3.3363,3.3317,3.3433,3.3372,3.3382,3.3433,3.3451,3.3466,3.3465,3.3241,0,0,0,0,0,3.3332,3.3366,3.335,3.3417,3.3422,3.3396,3.3412,3.3386,3.3391,3.3393,3.3384,3.3389,3.3415,3.3433,3.3456,3.3537,3.3533,3.3576,3.3591,3.3603,3.3612,3.3652,3.367,3.3477,3.3477,3.3477,0,0,3.3391,3.3386,3.341,3.3435,3.3437,3.3471,3.3399,3.3439,3.3464,3.3398,3.3452,3.3446,3.3449,3.3518,3.3548,3.3516,3.3665,3.3613,3.3623,3.3625,3.3662,3.3681,3.3697,3.3482,3.3481,3.3481,0,0,3.3515,3.3516,3.3571,3.3575,3.3578,3.356,3.3574,3.3567,3.356,3.3614,3.3565,3.3594,3.3641,3.3644,3.3652,3.3778,3.3739,3.3787,3.3863,3.3903,3.3918,3.3932,3.3975,3.3991,3.3796,3.3796,3.3796,0,3.3588,3.3639,3.3604,3.3647,3.3659,3.3602,3.3657,3.3662,3.3673,3.3681,3.3647,3.3703,3.3701,3.3769,3.38,3.3809,3.3822,3.3786,3.3919,3.3932,3.3944,3.3985,3.4001,3.3802,3.3801,3.3801,3.38,0,3.3727,3.3763,3.3807,3.3819,3.3836,3.3885,3.3856,3.3877,3.3851,3.3837,3.3891,3.3887,3.3907,3.3922,3.3896,3.3986,3.3967,3.3926,3.3863,3.3969,3.4006,3.4021,3.381,3.3808,3.3806,3.3805,0,0,3.3907,3.3899,3.3915,3.3919,3.3919,3.3946,3.3992,3.4013,3.4031,3.404,3.4077,3.4117,3.408,3.4089,3.4063,3.4099,3.4196,3.4053,3.4053,3.4079,3.4293,3.4323,3.4341,3.4171,3.4174,3.4176,3.4293,0,3.4026,3.4105,3.4074,3.4155,3.4187,3.4133,3.4173,3.4176,3.4164,3.4189,3.4175,3.4204,3.4153,3.4158,3.4191,3.4178,3.4239,3.4169,3.4203,3.4205,3.4202,3.4361,3.4392,3.4502,3.4307,3.431,3.4312,0,3.4177,3.4192,3.4276,3.4268,3.4281,3.4317,3.4333,3.4358,3.436,3.4349,3.436,3.4326,3.4369,3.4308,3.4366,3.432,3.4332,3.4328,3.4331,3.4332,3.4263,3.4365,3.4537,3.4553,3.4335,3.4333,3.4331,0,3.4297,3.4339,3.4394,3.44,3.4393,3.442,3.4418,3.4418,3.4431,3.4445,3.4454,3.4473,3.4483,3.4498,3.4469,3.4428,3.4532,3.4468,3.4522,3.4523,3.4545,3.4544,3.472,3.4556,3.4556,3.4556,3.4555,0,3.4433,3.4486,3.4448,3.4482,3.4539,3.4503,3.4561,3.4553,3.4553,3.4583,3.4539,3.4568,3.453,3.4555,3.4534,3.4585,3.459,3.4581,3.4575,3.4584,3.4585,3.4591,3.4582,3.456,3.4559,3.4558,3.4557,0,3.4577,3.4554,3.461,3.4599,3.4598,3.464,3.4631,3.4661,3.4646,3.4685,3.4692,3.4668,3.4696,3.467,3.4696,3.4681,3.4749,3.4732,3.4748,3.4743,3.4798,3.4792,3.4982,3.5005,3.4828,3.483,3.4831,0,3.4664,3.4704,3.4697,3.4714,3.4716,3.4744,3.4758,3.4725,3.4741,3.4747,3.4776,3.48,3.4817,3.4864,3.4849,3.4868,3.485,3.4916,3.4853,3.4861,3.4849,3.4847,3.485,3.4928,3.493,3.4932,3.4933,0,3.4821,3.4808,3.483,3.4848,3.4866,3.4878,3.4887,3.4904,3.4869,3.489,3.4918,3.4931,3.4958,3.4982,3.4997,3.4994,3.4958,3.4953,3.4967,3.4976,3.4983,3.4978,3.4781,3.4949,3.4947,3.4946,3.4945,3.4945,3.4938,3.497,3.497,3.4996,3.4999,3.5008,3.5036,3.5024,3.5047,3.5066,3.5045,3.5079,3.5079,3.5096,3.5098,3.5123,3.5095,3.5115,3.512,3.5125,3.5132,3.4981,3.5126,3.5125,3.5125,3.5125,3.5124,0,3.5091,3.5088,3.5112,3.5126,3.5146,3.5111,3.5119,3.5138,3.5168,3.5172,3.519,3.5222,3.5245,3.5231,3.5251,3.5274,3.5257,3.528,3.5277,3.5276,3.5156,3.5142,3.5292,3.5292,3.5292,3.5292,3.5292,3.5292,3.5173,3.5224,3.5211,3.5263,3.5259,3.5292,3.53,3.5308,3.531,3.5348,3.5367,3.5358,3.5355,3.5374,3.5393,3.5388,3.5397,3.5425,3.5414,3.5302,3.5285,3.5269,3.5256,3.5428,3.5428,3.5532,3.5533,3.5534]}]]